GW7935 Weather Reports


time (UTC)temp
F
wind
direction
speed
knots
gust
knots
rain 1hr
in
rain 24hr
in
rain mn
in
humidity
%
barometer
mb
20260906230619 79 175 15.6 26.1 0.00 0.00 0.00 29 1021.5
20260906230120 80 197 17.4 20.0 0.00 0.00 0.00 27 1021.4
20260906225619 80 205 13.0 18.2 0.00 0.00 0.00 25 1021.2
20260906225119 80 220 8.7 12.2 0.00 0.00 0.00 24 1020.7
20260906224619 81 225 8.7 13.0 0.00 0.00 0.00 24 1020.5
20260906224119 81 227 5.2 8.7 0.00 0.00 0.00 24 1020.2
20260906223620 82 244 8.7 11.3 0.00 0.00 0.00 23 1020.3
20260906223119 82 247 4.3 11.3 0.00 0.00 0.00 23 1019.8
20260906222620 82 234 3.5 6.1 0.00 0.00 0.00 23 1019.8
20260906222119 83 238 4.3 7.0 0.00 0.00 0.00 22 1019.9
20260906221620 83 251 2.6 3.5 0.00 0.00 0.00 23 1019.8
20260906221120 84 219 4.3 7.8 0.00 0.00 0.00 22 1019.6
20260906220619 84 222 5.2 5.2 0.00 0.00 0.00 21 1019.4
20260906220119 85 200 3.5 5.2 0.00 0.00 0.00 22 1019.4
20260906215620 85 322 1.7 2.6 0.00 0.00 0.00 24 1019.2
20260906215119 86 211 1.7 3.5 0.00 0.00 0.00 22 1019.2
20260906214620 86 230 1.7 2.6 0.00 0.00 0.00 22 1019.0
20260906214119 87 126 2.6 3.5 0.00 0.00 0.00 21 1019.1
20260906213619 87 169 1.7 2.6 0.00 0.00 0.00 22 1018.8
20260906213119 88 169 1.7 2.6 0.00 0.00 0.00 22 1018.8
20260906212617 88 274 1.7 2.6 0.00 0.00 0.00 22 1018.7
20260906212117 88 141 1.7 2.6 0.00 0.00 0.00 23 1018.9
20260906211618 88 141 1.7 2.6 0.00 0.00 0.00 21 1018.8
20260906211118 88 279 1.7 2.6 0.00 0.00 0.00 22 1018.6
20260906210618 88 204 2.6 4.3 0.00 0.00 0.00 21 1018.9
20260906210117 88 356 1.7 1.7 0.00 0.00 0.00 22 1018.7
20260906205617 88 351 1.7 3.5 0.00 0.00 0.00 20 1018.8
20260906205118 88 244 3.5 5.2 0.00 0.00 0.00 22 1018.9
20260906204618 88 303 5.2 6.1 0.00 0.00 0.00 21 1019.1
20260906204118 89 279 3.5 5.2 0.00 0.00 0.00 22 1018.9
20260906203617 89 291 2.6 3.5 0.00 0.00 0.00 22 1018.6
20260906203117 88 112 4.3 5.2 0.00 0.00 0.00 22 1018.8
20260906202617 87 119 4.3 6.1 0.00 0.00 0.00 20 1019.0
20260906202117 89 280 1.7 3.5 0.00 0.00 0.00 20 1018.8
20260906201617 89 278 2.6 3.5 0.00 0.00 0.00 22 1018.6
20260906201117 89 310 0.0 1.7 0.00 0.00 0.00 21 1018.7
20260906200618 87 279 3.5 3.5 0.00 0.00 0.00 23 1019.4
20260906200118 87 34 1.7 1.7 0.00 0.00 0.00 21 1018.9
20260906195617 87 178 1.7 1.7 0.00 0.00 0.00 23 1019.4
20260906195117 86 40 2.6 4.3 0.00 0.00 0.00 22 1019.2
20260906194617 87 113 3.5 5.2 0.00 0.00 0.00 20 1019.1
20260906194117 87 315 0.0 0.9 0.00 0.00 0.00 22 1019.1
20260906193618 86 80 2.6 2.6 0.00 0.00 0.00 20 1019.4
20260906193117 85 355 2.6 3.5 0.00 0.00 0.00 22 1019.8
20260906192618 85 74 3.5 5.2 0.00 0.00 0.00 20 1019.7
20260906192118 85 25 0.0 0.0 0.00 0.00 0.00 24 1020.2
20260906191617 84 293 1.7 2.6 0.00 0.00 0.00 24 1020.4
20260906191118 83 143 1.7 2.6 0.00 0.00 0.00 24 1020.2
20260906190618 82 103 2.6 2.6 0.00 0.00 0.00 25 1020.6
20260906190118 82 262 0.9 1.7 0.00 0.00 0.00 27 1020.6
20260906185618 81 148 5.2 5.2 0.00 0.00 0.00 28 1021.0
20260906185117 81 148 5.2 5.2 0.00 0.00 0.00 28 1021.3
20260906184617 80 148 5.2 5.2 0.00 0.00 0.00 25 1021.3
20260906184118 80 148 5.2 5.2 0.00 0.00 0.00 25 1021.5
20260906183618 80 167 3.5 5.2 0.00 0.00 0.00 25 1021.3
20260906183117 79 99 3.5 6.1 0.00 0.00 0.00 24 1021.5
20260906182617 79 114 1.7 3.5 0.00 0.00 0.00 27 1021.6
20260906182117 79 87 1.7 2.6 0.00 0.00 0.00 27 1021.6
20260906181617 78 87 1.7 2.6 0.00 0.00 0.00 27 1021.8
20260906181118 78 87 1.7 2.6 0.00 0.00 0.00 27 1021.9
20260906180618 78 87 1.7 2.6 0.00 0.00 0.00 28 1022.0
20260906180117 78 87 1.7 2.6 0.00 0.00 0.00 26 1022.2
20260906175618 79 87 1.7 2.6 0.00 0.00 0.00 27 1022.0
20260906175118 79 122 1.7 2.6 0.00 0.00 0.00 28 1022.2
20260906174618 79 336 2.6 2.6 0.00 0.00 0.00 27 1022.4
20260906174117 79 81 4.3 4.3 0.00 0.00 0.00 28 1022.6
20260906173618 77 154 2.6 3.5 0.00 0.00 0.00 29 1022.8
20260906173118 76 127 4.3 5.2 0.00 0.00 0.00 31 1022.9
20260906172617 74 86 4.3 4.3 0.00 0.00 0.00 32 1023.1
20260906172117 74 75 6.1 7.8 0.00 0.00 0.00 32 1023.7
20260906171617 73 19 3.5 3.5 0.00 0.00 0.00 32 1023.2
20260906171118 72 125 2.6 3.5 0.00 0.00 0.00 33 1023.6
20260906170617 71 141 1.7 1.7 0.00 0.00 0.00 35 1024.2
20260906170117 71 141 1.7 1.7 0.00 0.00 0.00 35 1024.0
20260906165617 70 168 1.7 2.6 0.00 0.00 0.00 35 1024.3
20260906165117 70 133 5.2 6.1 0.00 0.00 0.00 36 1024.2
20260906164618 70 133 5.2 6.1 0.00 0.00 0.00 36 1024.2
20260906164117 70 107 2.6 2.6 0.00 0.00 0.00 36 1023.7
20260906163617 69 144 2.6 4.3 0.00 0.00 0.00 37 1023.7
20260906163118 69 110 3.5 4.3 0.00 0.00 0.00 37 1023.8
20260906162617 68 124 2.6 5.2 0.00 0.00 0.00 38 1023.8
20260906162117 68 199 3.5 3.5 0.00 0.00 0.00 40 1024.2
20260906161618 67 151 2.6 4.3 0.00 0.00 0.00 40 1024.3
20260906161118 67 113 3.5 5.2 0.00 0.00 0.00 40 1024.2
20260906160618 67 139 1.7 3.5 0.00 0.00 0.00 40 1024.4
20260906160117 67 333 0.0 4.3 0.00 0.00 0.00 40 1024.4
20260906155617 66 115 4.3 4.3 0.00 0.00 0.00 42 1024.5
20260906155118 66 60 2.6 4.3 0.00 0.00 0.00 40 1024.3
20260906154618 65 54 1.7 2.6 0.00 0.00 0.00 42 1024.5
20260906154118 65 112 2.6 4.3 0.00 0.00 0.00 43 1024.3
20260906153617 65 89 3.5 6.1 0.00 0.00 0.00 42 1024.3
20260906153118 64 121 2.6 5.2 0.00 0.00 0.00 43 1024.5
20260906152617 64 126 3.5 3.5 0.00 0.00 0.00 45 1024.5
20260906152118 63 81 1.7 4.3 0.00 0.00 0.00 45 1024.6
20260906151617 63 88 0.9 1.7 0.00 0.00 0.00 48 1024.6
20260906151117 62 105 1.7 3.5 0.00 0.00 0.00 49 1024.6
20260906150618 61 71 3.5 4.3 0.00 0.00 0.00 50 1024.8
20260906150117 60 80 2.6 2.6 0.00 0.00 0.00 55 1024.8
20260906145617 60 80 2.6 2.6 0.00 0.00 0.00 56 1024.9
20260906145117 60 104 3.5 3.5 0.00 0.00 0.00 56 1025.1
20260906144616 59 87 1.7 2.6 0.00 0.00 0.00 56 1025.1
20260906144116 59 103 1.7 3.5 0.00 0.00 0.00 57 1024.8
20260906143616 59 132 3.5 3.5 0.00 0.00 0.00 57 1025.1
20260906143117 58 151 0.9 1.7 0.00 0.00 0.00 56 1024.8
20260906142616 58 116 0.9 1.7 0.00 0.00 0.00 56 1024.7
20260906142117 58 166 2.6 2.6 0.00 0.00 0.00 56 1024.7
20260906141616 58 105 2.6 2.6 0.00 0.00 0.00 56 1024.8
20260906141117 58 105 2.6 2.6 0.00 0.00 0.00 55 1024.4
20260906140617 58 289 1.7 1.7 0.00 0.00 0.00 55 1024.4
20260906140117 58 124 4.3 5.2 0.00 0.00 0.00 55 1024.5
20260906135616 58 85 1.7 2.6 0.00 0.00 0.00 54 1024.2
20260906135116 59 103 1.7 3.5 0.00 0.00 0.00 53 1023.7
20260906134616 59 150 2.6 3.5 0.00 0.00 0.00 52 1023.5
20260906134117 61 180 2.6 3.5 0.00 0.00 0.00 50 1023.0
20260906133617 63 106 3.5 3.5 0.00 0.00 0.00 47 1022.6
20260906133117 66 77 2.6 3.5 0.00 0.00 0.00 44 1021.9
20260906132616 68 104 2.6 2.6 0.00 0.00 0.00 44 1021.3
20260906132117 65 86 1.7 2.6 0.00 0.00 0.00 51 1021.5
20260906131616 62 63 1.7 2.6 0.00 0.00 0.00 57 1022.1
20260906131116 57 84 0.0 1.7 0.00 0.00 0.00 64 1022.6
20260906130617 52 168 0.9 2.6 0.00 0.00 0.00 68 1023.5
20260906130116 50 56 1.7 1.7 0.00 0.00 0.00 67 1023.7
20260906125617 50 116 1.7 3.5 0.00 0.00 0.00 67 1023.7
20260906125117 50 155 1.7 2.6 0.00 0.00 0.00 67 1023.7
20260906124616 50 82 1.7 4.3 0.00 0.00 0.00 67 1023.3
20260906124116 50 75 3.5 4.3 0.00 0.00 0.00 68 1023.1
20260906123616 50 99 3.5 5.2 0.00 0.00 0.00 67 1023.2
20260906123117 51 92 4.3 5.2 0.00 0.00 0.00 68 1022.8
20260906122616 51 53 3.5 5.2 0.00 0.00 0.00 69 1022.7
20260906122116 51 49 6.1 7.0 0.00 0.00 0.00 66 1022.7
20260906121616 51 78 0.9 3.5 0.00 0.00 0.00 65 1022.6
20260906121117 52 121 3.5 6.1 0.00 0.00 0.00 65 1022.5
20260906120616 52 176 2.6 2.6 0.00 0.00 0.00 64 1022.6
20260906120117 52 50 3.5 4.3 0.00 0.00 0.00 64 1022.3
20260906115616 52 23 3.5 6.1 0.00 0.00 0.00 66 1022.6
20260906115116 52 3 4.3 7.0 0.00 0.00 0.00 66 1022.4
20260906114617 51 60 2.6 3.5 0.00 0.00 0.00 64 1022.4
20260906114116 52 222 0.0 1.7 0.00 0.00 0.00 63 1022.4
20260906113616 52 94 1.7 3.5 0.00 0.00 0.00 63 1022.4
20260906113117 52 145 0.9 2.6 0.00 0.00 0.00 62 1022.4
20260906112617 52 67 2.6 3.5 0.00 0.00 0.00 63 1022.5
20260906112116 52 63 2.6 3.5 0.00 0.00 0.00 62 1022.4
20260906111616 52 59 3.5 6.1 0.00 0.00 0.00 63 1022.1
20260906111117 52 40 4.3 4.3 0.00 0.00 0.00 63 1022.4
20260906110617 52 41 4.3 5.2 0.00 0.00 0.00 65 1022.1
20260906110114 52 47 5.2 5.2 0.00 0.00 0.00 65 1022.4
20260906105614 52 87 2.6 3.5 0.00 0.00 0.00 64 1022.2
20260906105115 52 58 1.7 3.5 0.00 0.00 0.00 64 1022.4
20260906104615 52 118 1.7 3.5 0.00 0.00 0.00 63 1022.3
20260906104114 52 100 1.7 3.5 0.00 0.00 0.00 64 1022.1
20260906103615 52 85 2.6 3.5 0.00 0.00 0.00 64 1022.3
20260906103115 53 89 2.6 2.6 0.00 0.00 0.00 63 1022.1
20260906102614 53 110 1.7 1.7 0.00 0.00 0.00 62 1022.4
20260906102114 53 218 1.7 1.7 0.00 0.00 0.00 61 1022.0
20260906101614 53 206 1.7 2.6 0.00 0.00 0.00 60 1021.9
20260906101115 54 31 5.2 5.2 0.00 0.00 0.00 60 1021.9
20260906100614 54 33 4.3 6.1 0.00 0.00 0.00 59 1021.6
20260906100114 53 47 4.3 4.3 0.00 0.00 0.00 60 1021.8
20260906095615 53 62 2.6 4.3 0.00 0.00 0.00 61 1021.5
20260906095114 54 95 1.7 1.7 0.00 0.00 0.00 61 1021.6
20260906094614 53 36 3.5 4.3 0.00 0.00 0.00 61 1021.7
20260906094114 53 51 2.6 2.6 0.00 0.00 0.00 61 1021.7
20260906093615 53 83 3.5 3.5 0.00 0.00 0.00 63 1021.7
20260906093114 53 96 2.6 3.5 0.00 0.00 0.00 62 1021.7
20260906092615 53 73 0.9 1.7 0.00 0.00 0.00 60 1021.7
20260906092114 53 89 1.7 2.6 0.00 0.00 0.00 61 1021.8
20260906091614 54 94 1.7 3.5 0.00 0.00 0.00 61 1021.6
20260906091114 54 118 1.7 1.7 0.00 0.00 0.00 60 1021.7
20260906090615 54 113 0.0 1.7 0.00 0.00 0.00 59 1021.6
20260906090114 54 89 2.6 2.6 0.00 0.00 0.00 60 1021.5
20260906085615 54 101 1.7 1.7 0.00 0.00 0.00 59 1021.4
20260906085114 54 122 1.7 1.7 0.00 0.00 0.00 59 1021.4
20260906084615 54 102 0.9 1.7 0.00 0.00 0.00 58 1021.5
20260906084115 55 76 1.7 2.6 0.00 0.00 0.00 58 1021.1
20260906083614 55 95 2.6 2.6 0.00 0.00 0.00 58 1021.1
20260906083115 55 93 1.7 2.6 0.00 0.00 0.00 59 1021.3
20260906082615 55 138 1.7 1.7 0.00 0.00 0.00 58 1021.2
20260906082115 55 60 1.7 2.6 0.00 0.00 0.00 59 1021.5
20260906081614 55 64 1.7 4.3 0.00 0.00 0.00 60 1021.2
20260906081115 56 97 5.2 5.2 0.00 0.00 0.00 60 1021.2
20260906080614 56 87 2.6 2.6 0.00 0.00 0.00 57 1021.2
20260906080115 56 131 1.7 2.6 0.00 0.00 0.00 57 1020.9
20260906075615 56 24 0.9 1.7 0.00 0.00 0.00 57 1021.1
20260906075115 56 25 1.7 3.5 0.00 0.00 0.00 56 1021.2
20260906074614 57 89 1.7 4.3 0.00 0.00 0.00 57 1021.2
20260906074115 56 31 2.6 4.3 0.00 0.00 0.00 56 1021.2
20260906073615 56 88 1.7 1.7 0.00 0.00 0.00 57 1021.3
20260906073114 56 55 1.7 3.5 0.00 0.00 0.00 58 1021.2
20260906072614 56 130 0.9 2.6 0.00 0.00 0.00 57 1021.5
20260906072115 57 82 2.6 3.5 0.00 0.00 0.00 58 1021.2
20260906071615 57 51 2.6 3.5 0.00 0.00 0.00 56 1021.2
20260906071115 57 104 2.6 3.5 0.00 0.00 0.00 56 1021.2
20260906070615 57 47 2.6 3.5 0.00 0.00 0.00 56 1021.5
20260906070115 57 48 3.5 4.3 0.00 0.00 0.00 56 1021.7
20260906065615 57 21 1.7 2.6 0.00 0.00 0.00 57 1021.6
20260906065115 57 36 2.6 2.6 0.00 0.00 0.00 57 1021.4
20260906064614 57 84 4.3 5.2 0.00 0.00 0.00 58 1021.6
20260906064114 58 79 5.2 6.1 0.00 0.00 0.00 58 1021.2
20260906063614 57 61 3.5 5.2 0.00 0.00 0.00 57 1021.4
20260906063115 58 94 1.7 3.5 0.00 0.00 0.00 57 1021.3
20260906062614 58 37 1.7 1.7 0.00 0.00 0.00 56 1021.6
20260906062114 58 76 2.6 4.3 0.00 0.00 0.00 57 1021.4
20260906061615 58 89 3.5 3.5 0.00 0.00 0.00 56 1021.1
20260906061115 59 53 2.6 3.5 0.00 0.00 0.00 56 1021.2
20260906060615 59 66 1.7 3.5 0.00 0.00 0.00 55 1021.0
20260906060114 59 28 2.6 3.5 0.00 0.00 0.00 53 1021.2
20260906055615 59 46 3.5 5.2 0.00 0.00 0.00 55 1021.2
20260906055114 59 61 2.6 3.5 0.00 0.00 0.00 55 1021.1
20260906054615 59 49 2.6 3.5 0.00 0.00 0.00 55 1021.0
20260906054115 59 87 3.5 3.5 0.00 0.00 0.00 55 1021.5
20260906053615 60 88 3.5 4.3 0.00 0.00 0.00 55 1021.2
20260906053114 60 97 2.6 3.5 0.00 0.00 0.00 53 1021.3
20260906052614 60 73 1.7 1.7 0.00 0.00 0.00 50 1021.0
20260906052115 60 85 0.9 1.7 0.00 0.00 0.00 50 1021.1
20260906051615 61 98 1.7 1.7 0.00 0.00 0.00 50 1021.1
20260906051115 61 83 3.5 4.3 0.00 0.00 0.00 52 1021.4
20260906050615 61 54 1.7 3.5 0.00 0.00 0.00 50 1021.4
20260906050114 62 74 1.7 5.2 0.00 0.00 0.00 51 1021.2
20260906045614 62 65 2.6 2.6 0.00 0.00 0.00 49 1020.9
20260906045114 63 87 3.5 4.3 0.00 0.00 0.00 49 1021.1
20260906044614 63 89 5.2 5.2 0.00 0.00 0.00 48 1021.1
20260906044114 65 102 4.3 4.3 0.00 0.00 0.00 46 1021.0
20260906043615 65 9 5.2 7.0 0.00 0.00 0.00 43 1020.6
20260906043114 65 11 8.7 9.6 0.00 0.00 0.00 42 1020.7
20260906042615 65 13 7.0 8.7 0.00 0.00 0.00 42 1020.6
20260906042114 65 8 6.1 8.7 0.00 0.00 0.00 42 1020.8
20260906041615 65 17 7.8 9.6 0.00 0.00 0.00 43 1020.9
20260906041115 65 8 8.7 8.7 0.00 0.00 0.00 44 1020.9
20260906040614 65 20 8.7 10.4 0.00 0.00 0.00 45 1021.0
20260906040114 66 21 7.0 10.4 0.00 0.00 0.00 44 1021.1
20260906035614 66 26 9.6 10.4 0.00 0.00 0.00 43 1020.8
20260906035115 67 22 7.0 8.7 0.00 0.00 0.00 41 1020.9
20260906034615 67 21 5.2 7.0 0.00 0.00 0.00 38 1020.8
20260906034114 67 47 3.5 3.5 0.00 0.00 0.00 37 1020.8
20260906033614 69 56 3.5 3.5 0.00 0.00 0.00 37 1020.6
20260906033114 69 34 3.5 3.5 0.00 0.00 0.00 33 1020.9
20260906032614 68 24 2.6 3.5 0.00 0.00 0.00 33 1021.1
20260906032114 68 45 5.2 6.1 0.00 0.00 0.00 34 1021.3
20260906031615 69 56 1.7 2.6 0.00 0.00 0.00 34 1021.1
20260906031115 69 92 2.6 2.6 0.00 0.00 0.00 32 1021.1
20260906030614 70 126 0.0 0.0 0.00 0.00 0.00 30 1021.1
20260906030114 70 89 0.9 1.7 0.00 0.00 0.00 30 1021.3
20260906025615 71 143 0.0 0.9 0.00 0.00 0.00 28 1021.4
20260906025114 71 250 0.0 0.0 0.00 0.00 0.00 28 1021.3
20260906024615 71 89 0.0 0.0 0.00 0.00 0.00 30 1021.1
20260906024114 71 144 0.0 0.9 0.00 0.00 0.00 29 1021.0
20260906023612 72 105 1.7 2.6 0.00 0.00 0.00 27 1020.7
20260906023112 72 269 0.0 2.6 0.00 0.00 0.00 27 1020.8
20260906022612 72 308 0.9 1.7 0.00 0.00 0.00 26 1020.7
20260906022112 72 262 1.7 1.7 0.00 0.00 0.00 26 1020.8
20260906021612 73 148 0.0 0.9 0.00 0.00 0.00 26 1020.6
20260906021112 73 246 0.0 0.0 0.00 0.00 0.00 26 1020.7
20260906020613 74 135 0.0 0.0 0.00 0.00 0.00 26 1020.4
20260906020113 74 235 0.0 0.0 0.00 0.00 0.00 26 1020.4
20260906015613 75 315 0.0 0.0 0.00 0.00 0.00 26 1020.5
20260906015112 76 203 0.0 0.9 0.00 0.00 0.00 25 1020.3
20260906014612 76 209 1.7 2.6 0.00 0.00 0.00 24 1020.3
20260906014113 77 196 3.5 3.5 0.00 0.00 0.00 24 1019.7
20260906013612 77 89 0.0 0.0 0.00 0.00 0.00 23 1019.5
20260906013112 78 152 0.9 1.7 0.00 0.00 0.00 24 1018.5
20260906012612 79 299 0.9 1.7 0.00 0.00 0.00 24 1018.8
20260906012112 79 13 0.0 0.0 0.00 0.00 0.00 24 1019.0
20260906011612 80 224 0.0 1.7 0.00 0.00 0.00 24 1019.1
20260906011113 81 259 1.7 1.7 0.00 0.00 0.00 23 1019.7
20260906010612 82 254 2.6 3.5 0.00 0.00 0.00 22 1019.8
20260906010113 82 252 1.7 5.2 0.00 0.00 0.00 21 1019.8
20260906005613 83 283 4.3 6.1 0.00 0.00 0.00 24 1019.5
20260906005112 83 149 1.7 3.5 0.00 0.00 0.00 23 1019.4
20260906004612 84 178 4.3 4.3 0.00 0.00 0.00 21 1019.3
20260906004112 84 53 3.5 5.2 0.00 0.00 0.00 21 1019.6
20260906003612 84 144 2.6 2.6 0.00 0.00 0.00 23 1019.7
20260906003113 84 167 1.7 3.5 0.00 0.00 0.00 23 1019.3
20260906002612 84 247 1.7 2.6 0.00 0.00 0.00 23 1019.4
20260906002111 84 211 1.7 3.5 0.00 0.00 0.00 23 1019.3
20260906001612 85 214 3.5 4.3 0.00 0.00 0.00 23 1019.2
20260906001112 85 200 2.6 3.5 0.00 0.00 0.00 23 1019.2
20260906000611 85 135 2.6 2.6 0.00 0.00 0.00 23 1018.9
20260906000112 85 185 0.9 1.7 0.00 0.00 0.00 22 1019.0
20260905235611 85 110 1.7 2.6 0.00 0.00 0.00 22 1019.1
20260905235112 85 169 3.5 4.3 0.00 0.00 0.00 21 1019.3
20260905234611 85 345 1.7 1.7 0.00 0.00 0.00 22 1019.0
20260905234112 85 168 2.6 5.2 0.00 0.00 0.00 23 1019.0
20260905233611 85 223 6.1 7.0 0.00 0.00 0.00 22 1019.1
20260905233111 85 179 1.7 2.6 0.00 0.00 0.00 21 1019.0
20260905232611 85 140 3.5 4.3 0.00 0.00 0.00 22 1019.1
20260905232111 85 117 1.7 2.6 0.00 0.00 0.00 22 1019.1
20260905231612 85 144 2.6 4.3 0.00 0.00 0.00 22 1019.1
20260905231112 85 165 3.5 4.3 0.00 0.00 0.00 22 1019.3